Regional Weather Roundup
Issued by NWS Cleveland, OH

Home | Current Version | Previous Version | Graphics & Text | Print | Product List | Glossary On
Versions: 1 2 3 4 5 6 7 8 9 10 11 12 13 14 15 16 17 18 19 20 21 22 23 24 25 26 27 28 29 30 31 32 33 34 35 36 37 38 39 40 41 42 43 44 45 46 47 48 49 50
000
ASUS41 KCLE 160812
RWRCLE
OHIO REGIONAL WEATHER ROUNDUP
NATIONAL WEATHER SERVICE WILMINGTON, OH
300 AM EST TUE JAN 16 2018

NOTE: "FAIR" INDICATES FEW OR NO CLOUDS BELOW 12,000 FEET WITH NO
SIGNIFICANT WEATHER AND/OR OBSTRUCTIONS TO VISIBILITY.

OHZ001>008-015>018-024>027-034-035-043-044-160900-
   NORTHWEST OHIO

CITY           SKY/WX    TMP DP  RH WIND       PRES   REMARKS
DEFIANCE       CLOUDY     7   1  76 W9        30.37R WCI  -7
FINDLAY        FAIR       6  -1  73 SW13      30.36S WCI -10
TOLEDO EXPRESS FLURRIES  11   7  84 SW8       30.34R WCI  -1
TOLEDO EXEC    CLOUDY     8   3  80 SW13      30.36R WCI  -8
LIMA           CLOUDY     6   1  80 W15       30.37R WCI -12
$$

OHZ009>014-019>023-028>033-038-089-160900-
   NORTHEAST OHIO

CITY           SKY/WX    TMP DP  RH WIND       PRES   REMARKS
CLE-HOPKINS    CLOUDY    21  17  84 SW5       30.35R WCI  15
CLE-LAKEFRONT  CLOUDY    23  17  78 SW8       30.33R WCI  14
CUY CO. ARPT   NOT AVBL
LORAIN-ELYRIA  CLOUDY    21  14  74 W6        30.33R WCI  13
ASHTABULA      CLOUDY    24  20  84 W10       30.31R WCI  14
AKRON-CANTON   CLOUDY    24  17  74 W5        30.30R WCI  18
WOOSTER        MOCLDY    15  13  91 CALM      30.30R
MANSFIELD      CLOUDY    14  10  84 W12       30.30R WCI   0
YOUNGSTOWN     FLURRIES  25  22  88 W9        30.29R WCI  15
$$

OHZ042-051>053-060>062-070>072-077>081-160900-
  SOUTHWEST OHIO

CITY           SKY/WX    TMP DP  RH WIND       PRES   REMARKS
CINC-COVINGTON CLOUDY    13   7  77 W10       30.42R WCI   0
CINC-LUNKEN    CLOUDY    15   6  67 W12       30.48R WCI   2
HAMILTON       MOCLDY    11   4  73 NW10      30.46R WCI  -3
DAYTON         MOCLDY    10   5  80 W14       30.39R WCI  -6
WRIGHT-PAT AFB CLOUDY    12   3  69 W10       30.40R WCI  -2
DAYTON GENERAL FAIR      10   1  67 W10       30.41R WCI  -4
WILMINGTON     CLOUDY    11   6  81 W12       30.39R WCI  -3
$$

OHZ036-037-039>041-045>050-054>059-063>069-073>076-082>088-160900-
  CENTRAL AND SOUTHEAST OHIO

CITY           SKY/WX    TMP DP  RH WIND       PRES   REMARKS
COLUMBUS       LGT SNOW  17  13  84 W10       30.37R FOG     WCI   5
OSU AIRPORT    CLOUDY    14   9  80 W16       30.37R WCI  -2
BOLTON FIELD   LGT SNOW  15  10  83 W8        30.38R WCI   3
RICKENBACK AFB LGT SNOW  17  14  89 NW10      30.38R WCI   4
NEWARK         LGT SNOW  26  23  88 SW6       30.33R WCI  19
MARION         CLOUDY    11   4  73 W10       30.36R WCI  -3
LANCASTER      LGT SNOW  20  16  84 W7G16     30.36R FOG     WCI  11
ZANESVILLE     LGT SNOW  26  23  88 S5        30.34R FOG     WCI  20
NEW PHILLY     LGT SNOW  25  21  85 CALM      30.34R FOG
$$




USA.gov is the U.S. government's official web portal to all federal, state and local government web resources and services.